Sharm El Sheikh, Egypt

10:01 AM EET on August 22, 2017 (GMT +0200)
Sharm El Sheikh

Weather History for HESH - December, 2013

Change the Weather History Date:

Wednesday, December 11, 2013

  Actual Average Record
Temperature  
Mean Temperature 65 °F -  
Max Temperature 77 °F 73 °F - ()
Min Temperature 53 °F 58 °F - ()
Growing Degree Days 15 (Base 50)    
Moisture  
Dew Point 37 °F    
Average Humidity 37    
Maximum Humidity 54    
Minimum Humidity 26    
Precipitation  
Precipitation 0.00 in 0.00 in - ()
Sea Level Pressure  
Sea Level Pressure 29.86 in    
Wind  
Wind Speed 7 mph ()    
Max Wind Speed 23 mph    
Max Gust Speed 37 mph    
Visibility 5.7 miles    
Events      
T = Trace of Precipitation, MM = Missing Value Source: Averaged Metar Reports

Daily Weather History Graph

Daily Weather History Graph

Search for Another Location

Airport or City:

Trip Planner

Search our weather history database for the weather conditions in past years. The results will help you decide how hot, cold, wet, or windy it might be!

Date:

Astronomy

Dec. 11, 2013 Rise Set
Actual Time 6:23 AM EET 4:47 PM EET
Civil Twilight 5:57 AM EET 5:13 PM EET
Nautical Twilight 5:28 AM EET 5:42 PM EET
Astronomical Twilight 5:00 AM EET 6:11 PM EET
Moon 12:48 PM EET (12/11) 12:48 AM EET (12/11)
Length of Visible Light 11h 15m
Length of Day
10h 24m
Waxing Gibbous, 69% of the Moon is Illuminated
Dec 11
Waxing Gibbous
Dec 17
Full
Dec 25
Last Quarter
Jan 1
New
Jan 8
First Quarter

Hourly Weather History & Observations

Time (EET) Temp. Dew Point Humidity Pressure Visibility Wind Dir Wind Speed Gust Speed Precip Events Conditions
12:00 AM 60.8 °F 35.6 °F 39% 29.95 in - North 9.2 mph - N/A   Clear
1:00 AM 59.0 °F 37.4 °F 45% 29.95 in - North 5.8 mph - N/A   Clear
2:00 AM 59.0 °F 37.4 °F 45% 29.92 in - North 5.8 mph - N/A   Clear
3:00 AM 57.2 °F 37.4 °F 48% 29.92 in - North 5.8 mph - N/A   Clear
4:00 AM 57.2 °F 37.4 °F 48% 29.92 in - NNW 5.8 mph - N/A   Clear
5:00 AM 53.6 °F 37.4 °F 54% 29.89 in - West 2.3 mph - N/A   Clear
6:00 AM 53.6 °F 37.4 °F 54% 29.92 in - West 2.3 mph - N/A   Clear
7:00 AM 55.4 °F 37.4 °F 51% 29.92 in - WNW 3.5 mph - N/A   Clear
8:00 AM 64.4 °F 39.2 °F 40% 29.92 in - Variable 1.2 mph - N/A   Clear
9:00 AM 71.6 °F 37.4 °F 29% 29.92 in - Calm Calm - N/A   Clear
10:00 AM 77.0 °F 39.2 °F 26% 29.92 in - Variable 1.2 mph - N/A   Clear
11:00 AM 77.0 °F 41.0 °F 28% 29.89 in 6.2 mi Variable 2.3 mph - N/A   Partly Cloudy
12:00 PM 75.2 °F 41.0 °F 29% 29.86 in 6.2 mi SSE 5.8 mph - N/A   Partly Cloudy
1:00 PM 73.4 °F 42.8 °F 33% 29.83 in 6.2 mi South 5.8 mph - N/A   Partly Cloudy
2:00 PM 73.4 °F 37.4 °F 27% 29.77 in 6.2 mi West 18.4 mph - N/A   Partly Cloudy
3:00 PM 71.6 °F 37.4 °F 29% 29.77 in - North - - N/A   Scattered Clouds
4:00 PM 69.8 °F 37.4 °F 31% 29.77 in - North - - N/A   Scattered Clouds
5:00 PM 66.2 °F 39.2 °F 37% 29.77 in 6.2 mi West 20.7 mph 34.5 mph N/A   Scattered Clouds
6:00 PM 66.2 °F 37.4 °F 35% 29.77 in 6.2 mi West 21.9 mph 36.8 mph N/A   Scattered Clouds
7:00 PM 64.4 °F 39.2 °F 40% 29.80 in 6.2 mi West 20.7 mph 36.8 mph N/A   Scattered Clouds
8:00 PM 64.4 °F 35.6 °F 34% 29.83 in - West 19.6 mph - N/A   Clear
9:00 PM 64.4 °F 35.6 °F 34% 29.83 in - West 15.0 mph - N/A   Clear
10:00 PM 62.6 °F 32.0 °F 32% 29.83 in - West 15.0 mph - N/A   Clear
11:00 PM 60.8 °F 30.2 °F 31% 29.83 in 1.9 mi West 23.0 mph - N/A   Sand